Location: Unspecified
(0.0000°N, 0.0000°E)
Time: 10:07:29
(UTC+00:00)

RS-15 - Pass Details

Date: 10 December 2017
Orbit: 1890 x 2154 km, 64.8° (Epoch: 24 June)

Event Time Altitude Azimuth Distance (km) Brightness Sun altitude
Exits shadow 04:22:34 14° 253° (WSW) 3,968 9.2 -20.7°
Maximum altitude 04:23:36 14° 247° (WSW) 3,950 9.2 -20.4°
Drops below altitude 10° 04:28:40 10° 218° (SW) 4,275 9.7 -19.3°
Sets 04:34:25 0° 194° (SSW) 5,272 10.4 -18.0°
